Weather History for KPRO - April, 2011

Change the Weather History Date:

Thursday, April 7, 2011

  Actual Average Record
Temperature  
Mean Temperature 46 °F -  
Max Temperature 57 °F 59 °F 89 °F (1991)
Min Temperature 35 °F 33 °F 12 °F (1982)
Degree Days  
Heating Degree Days 19    
Moisture  
Dew Point 35 °F    
Average Humidity 67    
Maximum Humidity 100    
Minimum Humidity 41    
Precipitation  
Precipitation 0.21 in - - ()
Sea Level Pressure  
Sea Level Pressure 29.93 in    
Wind  
Wind Speed 7 mph (ESE)    
Max Wind Speed 18 mph    
Max Gust Speed 25 mph    
Visibility 9 miles    
Events Rain    
Averages and records for this station are not official NWS values.
T = Trace of Precipitation, MM = Missing Value Source: NWS Daily Summary

Daily Weather History Graph

Daily Weather History Graph

Search for Another Location

Airport or City:

Trip Planner

Search our weather history database for the weather conditions in past years. The results will help you decide how hot, cold, wet, or windy it might be!

Date:

Astronomy

Apr. 07, 2011 Rise Set
Actual Time 6:49 AM CDT 7:48 PM CDT
Civil Twilight 6:21 AM CDT 8:16 PM CDT
Nautical Twilight 5:47 AM CDT 8:50 PM CDT
Astronomical Twilight 5:12 AM CDT 9:26 PM CDT
Moon 8:42 AM CDT (4/7) No Moon Set
Length of Visible Light 13h 55m
Length of Day
12h 58m
Waxing Crescent, 15% of the Moon is Illuminated
Apr 7
Waxing Crescent
Apr 11
First Quarter
Apr 17
Full
Apr 24
Last Quarter
May 3
New

Hourly Weather History & Observations

Time (CDT) Temp. Windchill Dew Point Humidity Pressure Visibility Wind Dir Wind Speed Gust Speed Precip Events Conditions
12:15 AM 44.6 °F 40.7 °F 30.2 °F 57% 29.94 in 10.0 mi NE 6.9 mph - N/A   Clear
12:35 AM 44.6 °F 43.1 °F 30.2 °F 57% 29.94 in 10.0 mi East 3.5 mph - N/A   Clear
12:55 AM 44.6 °F 43.1 °F 30.2 °F 57% 29.94 in 10.0 mi East 3.5 mph - N/A   Clear
1:15 AM 44.6 °F 42.2 °F 30.2 °F 57% 29.94 in 10.0 mi East 4.6 mph - N/A   Clear
1:35 AM 42.8 °F 40.1 °F 30.2 °F 61% 29.94 in 10.0 mi East 4.6 mph - N/A   Clear
1:55 AM 42.8 °F 40.1 °F 32.0 °F 66% 29.95 in 10.0 mi East 4.6 mph - N/A   Clear
2:15 AM 41.0 °F 39.0 °F 32.0 °F 70% 29.96 in 10.0 mi SE 3.5 mph - N/A   Clear
2:35 AM 42.8 °F - 32.0 °F 66% 29.97 in 10.0 mi Calm Calm - N/A   Clear
2:55 AM 41.0 °F - 32.0 °F 70% 29.97 in 10.0 mi Calm Calm - N/A   Clear
3:15 AM 37.4 °F - 32.0 °F 81% 29.96 in 10.0 mi Calm Calm - N/A   Clear
3:35 AM 41.0 °F - 32.0 °F 70% 29.96 in 10.0 mi Calm Calm - N/A   Clear
3:55 AM 39.2 °F - 32.0 °F 75% 29.96 in 10.0 mi Calm Calm - N/A   Clear
4:15 AM 39.2 °F - 32.0 °F 75% 29.97 in 10.0 mi Calm Calm - N/A   Clear
4:35 AM 37.4 °F - 32.0 °F 81% 29.97 in 10.0 mi Calm Calm - N/A   Clear
4:55 AM 37.4 °F - 32.0 °F 81% 29.98 in 10.0 mi Calm Calm - N/A   Clear
5:15 AM 37.4 °F - 32.0 °F 81% 29.97 in 10.0 mi Calm Calm - N/A   Clear
5:35 AM 37.4 °F - 30.2 °F 75% 29.97 in 10.0 mi Calm Calm - N/A   Clear
5:55 AM 37.4 °F - 32.0 °F 81% 29.97 in 10.0 mi Calm Calm - N/A   Clear
6:15 AM 37.4 °F - 32.0 °F 81% 29.97 in 10.0 mi Calm Calm - N/A   Clear
6:35 AM 37.4 °F 34.9 °F 32.0 °F 81% 29.97 in 10.0 mi ESE 3.5 mph - N/A   Clear
6:55 AM 35.6 °F 30.7 °F 32.0 °F 87% 29.97 in 10.0 mi ESE 5.8 mph - N/A   Clear
7:15 AM 35.6 °F 30.7 °F 32.0 °F 87% 29.97 in 10.0 mi SE 5.8 mph - N/A   Clear
7:35 AM 35.6 °F 31.7 °F 32.0 °F 87% 29.98 in 10.0 mi ESE 4.6 mph - N/A   Clear
7:55 AM 37.4 °F 34.9 °F 32.0 °F 81% 29.97 in 5.0 mi ESE 3.5 mph - N/A   Haze
8:15 AM 41.0 °F 39.0 °F 33.8 °F 76% 29.97 in 7.0 mi East 3.5 mph - N/A   Clear
8:35 AM 42.8 °F 41.1 °F 33.8 °F 70% 29.97 in 7.0 mi ESE 3.5 mph - N/A   Clear
8:55 AM 44.6 °F 41.4 °F 33.8 °F 66% 29.97 in 10.0 mi ESE 5.8 mph - N/A   Clear
9:15 AM 48.2 °F - 33.8 °F 58% 29.97 in 10.0 mi ESE 6.9 mph - N/A   Clear
9:35 AM 50.0 °F - 33.8 °F 54% 29.97 in 10.0 mi East 8.1 mph - N/A   Clear
9:55 AM 51.8 °F - 33.8 °F 50% 29.98 in 10.0 mi ESE 9.2 mph - N/A   Clear
10:15 AM 53.6 °F - 32.0 °F 44% 29.98 in 10.0 mi East 13.8 mph - N/A   Clear
10:35 AM 53.6 °F - 32.0 °F 44% 29.98 in 10.0 mi East 13.8 mph 18.4 mph N/A   Clear
10:55 AM 53.6 °F - 32.0 °F 44% 29.98 in 10.0 mi East 13.8 mph - N/A   Clear
11:15 AM 53.6 °F - 32.0 °F 44% 29.96 in 10.0 mi East 18.4 mph - N/A   Clear
11:35 AM 55.4 °F - 32.0 °F 41% 29.95 in 10.0 mi East 18.4 mph - N/A   Clear
11:55 AM 55.4 °F - 32.0 °F 41% 29.94 in 10.0 mi ESE 18.4 mph - N/A   Clear
12:15 PM 55.4 °F - 32.0 °F 41% 29.93 in 10.0 mi ESE 16.1 mph - N/A   Clear
12:35 PM 55.4 °F - 32.0 °F 41% 29.93 in 10.0 mi ESE 18.4 mph - N/A   Scattered Clouds
12:55 PM 55.4 °F - 32.0 °F 41% 29.92 in 10.0 mi ESE 12.7 mph 25.3 mph N/A   Scattered Clouds
1:15 PM 57.2 °F - 33.8 °F 41% 29.92 in 10.0 mi ESE 18.4 mph - N/A   Overcast
1:35 PM 57.2 °F - 35.6 °F 44% 29.92 in 10.0 mi SE 15.0 mph - N/A   Overcast
1:55 PM 55.4 °F - 37.4 °F 51% 29.91 in 10.0 mi ESE 16.1 mph - N/A   Overcast
2:15 PM 55.4 °F - 37.4 °F 51% 29.90 in 10.0 mi ESE 15.0 mph - N/A   Overcast
2:35 PM 55.4 °F - 39.2 °F 54% 29.89 in 10.0 mi ESE 13.8 mph 18.4 mph N/A   Scattered Clouds
2:55 PM 55.4 °F - 41.0 °F 58% 29.88 in 10.0 mi ESE 12.7 mph - N/A   Scattered Clouds
3:15 PM 55.4 °F - 41.0 °F 58% 29.89 in 10.0 mi SE 11.5 mph - N/A   Mostly Cloudy
3:35 PM 55.4 °F - 39.2 °F 54% 29.87 in 10.0 mi SE 12.7 mph - N/A   Overcast
3:55 PM 53.6 °F - 41.0 °F 62% 29.87 in 10.0 mi SSE 13.8 mph 24.2 mph N/A   Overcast
4:15 PM 51.8 °F - 44.6 °F 76% 29.86 in 10.0 mi SSE 13.8 mph 18.4 mph N/A Rain Light Rain
4:35 PM 50.0 °F - 44.6 °F 82% 29.86 in 10.0 mi SSE 16.1 mph - N/A Rain Light Rain
4:55 PM 48.2 °F - 44.6 °F 87% 29.85 in 10.0 mi SE 15.0 mph 21.9 mph N/A Rain Light Rain
5:15 PM 46.4 °F 40.4 °F 46.4 °F 100% 29.85 in 10.0 mi SE 13.8 mph - 0.01 in Rain Light Rain
5:35 PM 46.4 °F 40.7 °F 46.4 °F 100% 29.85 in 7.0 mi SE 12.7 mph - 0.02 in Rain Light Rain
5:55 PM 46.4 °F 40.7 °F 44.6 °F 93% 29.85 in 5.0 mi SE 12.7 mph - 0.04 in Rain Rain
6:15 PM 46.4 °F 40.4 °F 44.6 °F 93% 29.85 in 5.0 mi ESE 13.8 mph - 0.03 in Rain Rain
6:35 PM 44.6 °F 39.2 °F 44.6 °F 100% 29.85 in 4.0 mi ESE 10.4 mph - 0.10 in Rain Heavy Rain
6:55 PM 44.6 °F 39.2 °F 44.6 °F 100% 29.86 in 5.0 mi ESE 10.4 mph - 0.14 in Rain Rain
7:15 PM 44.6 °F 40.2 °F 44.6 °F 100% 29.87 in 5.0 mi East 8.1 mph - 0.03 in Rain Rain
7:35 PM 44.6 °F 40.7 °F 44.6 °F 100% 29.88 in 3.0 mi East 6.9 mph - 0.08 in Rain Rain
7:55 PM 44.6 °F 40.2 °F 44.6 °F 100% 29.88 in 5.0 mi East 8.1 mph - 0.11 in Rain Light Rain
8:15 PM 44.6 °F 40.2 °F 44.6 °F 100% 29.89 in 5.0 mi East 8.1 mph - 0.02 in Rain Rain
8:35 PM 44.6 °F 42.2 °F 44.6 °F 100% 29.90 in 5.0 mi East 4.6 mph - 0.05 in Rain Rain
8:55 PM 44.6 °F 40.2 °F 44.6 °F 100% 29.90 in 4.0 mi East 8.1 mph - 0.09 in Rain Rain
9:15 PM 44.6 °F 39.7 °F 44.6 °F 100% 29.89 in 3.0 mi East 9.2 mph - 0.02 in Rain Light Rain
9:35 PM 44.6 °F 40.2 °F 44.6 °F 100% 29.90 in 4.0 mi ENE 8.1 mph - 0.03 in Rain Light Rain
9:55 PM 44.6 °F 38.8 °F 44.6 °F 100% 29.88 in 4.0 mi East 11.5 mph - 0.03 in   Overcast
10:35 PM 44.6 °F 39.7 °F 44.6 °F 100% 29.89 in 4.0 mi ENE 9.2 mph - N/A   Overcast
10:55 PM 44.6 °F 40.2 °F 44.6 °F 100% 29.87 in 4.0 mi ENE 8.1 mph - N/A   Overcast
11:35 PM 44.6 °F 38.8 °F 44.6 °F 100% 29.86 in 5.0 mi East 11.5 mph - N/A   Overcast
11:55 PM 44.6 °F 39.2 °F 44.6 °F 100% 29.85 in 5.0 mi East 10.4 mph - N/A   Overcast